Location: *
(55.5817°S, 142.4781°W)
Time: 07:22:56
(UTC+00:00)

Cosmos 1943 Rocket - Pass Details

Date: 29 April 2025
Orbit: 812 x 841 km, 71.0° (Epoch: 23 May)

Event Time Altitude Azimuth Distance (km) Brightness Sun altitude
Exits shadow 14:52:22 - 213° (SSW) 2,650 4.5 -17.0°
Reaches altitude 10° 14:52:55 10° 209° (SSW) 2,500 4.4 -16.9°
Maximum altitude 14:57:05 20° 163° (SSE) 1,886 4.2 -16.3°
Drops below altitude 10° 15:01:15 10° 116° (ESE) 2,493 5.6 -15.7°
Sets 15:04:24 0° 99° (E) 3,423 7.0 -15.3°
